FW8607 Weather Reports


time (UTC)temp
C
wind
direction
speed
KPH
gust
KPH
rain 1hr
cm
rain 24hr
cm
rain mn
cm
humidity
%
barometer
mb
20240420223018 21 225 9.7 22.5 0.00 0.00 0.00 63 1014.3
20240420220018 21 248 12.9 27.4 0.00 0.00 0.00 66 1014.7
20240420213020 21 248 11.3 25.7 0.00 0.00 0.00 63 1014.9
20240420210019 21 248 9.7 20.9 0.00 0.00 0.00 63 1015.1
20240420203019 20 293 9.7 24.1 0.00 0.00 0.00 65 1015.4
20240420200020 20 293 9.7 17.7 0.00 0.00 0.00 64 1015.7
20240420193040 19 338 9.7 20.9 0.00 0.00 0.00 66 1015.8
20240420190039 18 293 9.7 19.3 0.00 0.00 0.00 68 1016.2
20240420183039 17 293 8.0 16.1 0.00 0.00 0.00 69 1016.0
20240420180019 17 315 6.4 14.5 0.00 0.00 0.00 71 1016.0
20240420173039 16 338 6.4 16.1 0.00 0.00 0.00 72 1016.1
20240420170019 15 338 6.4 17.7 0.00 0.00 0.00 75 1015.9
20240420163019 15 338 4.8 14.5 0.00 0.00 0.00 77 1015.8
20240420160020 14 113 4.8 12.9 0.00 0.00 0.00 77 1015.6
20240420153039 13 68 3.2 11.3 0.00 0.00 0.00 81 1015.3
20240420150019 12 0 1.6 8.0 0.00 0.00 0.00 82 1015.2
20240420143018 12 248 3.2 6.4 0.00 0.00 0.00 83 1015.3
20240420140019 12 248 1.6 6.4 0.00 0.00 0.00 84 1015.0
20240420133018 12 248 1.6 6.4 0.00 0.00 0.00 84 1014.9
20240420130100 12 158 1.6 6.4 0.00 0.00 0.00 84 1014.8
20240420123020 12 158 1.6 8.0 0.00 0.00 0.00 85 1014.5
20240420120019 12 90 1.6 6.4 0.00 0.00 0.00 86 1014.4
20240420113039 12 90 3.2 6.4 0.00 0.00 0.00 86 1014.2
20240420110018 12 248 1.6 6.4 0.00 0.00 0.00 86 1014.3
20240420103018 12 0.0 4.8 0.00 0.00 0.00 85 1014.5
20240420100018 12 248 3.2 6.4 0.00 0.00 0.00 86 1014.6
20240420093018 12 113 1.6 6.4 0.00 0.00 0.00 87 1014.7
20240420090018 12 113 1.6 9.7 0.00 0.00 0.00 88 1014.7
20240420083038 12 135 3.2 6.4 0.00 0.00 0.00 87 1014.9
20240420080019 12 135 1.6 8.0 0.00 0.00 0.00 87 1014.7
20240420073019 12 0.0 4.8 0.00 0.00 0.00 87 1015.0
20240420070019 12 315 1.6 8.0 0.00 0.00 0.00 87 1014.9
20240420063038 12 338 3.2 6.4 0.00 0.00 0.00 87 1014.7
20240420060058 12 248 3.2 6.4 0.00 0.00 0.00 88 1014.7
20240420053018 12 248 3.2 4.8 0.00 0.00 0.00 89 1014.8
20240420050017 12 248 3.2 4.8 0.00 0.00 0.00 89 1014.6
20240420043039 12 248 3.2 6.4 0.00 0.00 0.00 88 1014.4
20240420040017 12 248 4.8 8.0 0.00 0.00 0.00 87 1014.2
20240420033021 12 248 4.8 11.3 0.00 0.00 0.00 86 1014.0
20240420030020 13 270 6.4 11.3 0.00 0.00 0.00 85 1013.7
20240420023039 13 248 9.7 19.3 0.00 0.00 0.00 83 1013.3
20240420020041 15 225 9.7 19.3 0.00 0.00 0.00 79 1013.1
20240420013019 16 248 9.7 17.7 0.00 0.00 0.00 76 1013.0
20240420010019 16 225 12.9 22.5 0.00 0.00 0.00 74 1013.1
20240420003019 17 248 11.3 24.1 0.00 0.00 0.00 73 1013.1
20240420000019 17 225 12.9 24.1 0.00 0.00 0.00 72 1013.2
20240419233019 17 225 14.5 25.7 0.00 0.00 0.00 71 1013.0
20240419230019 18 248 12.9 24.1 0.00 0.00 0.00 69 1012.9